Location: Constantia
(34.0183°S, 18.4411°E)
Time: 22:43:13
(UTC+00:00)

BREEZE-M DEB (TANK) - Pass Details

Date: 17 February 2020
Orbit: 295 x 18446 km, 53.0° (Epoch: 05 April)

Event Time Altitude Azimuth Distance (km) Brightness Sun altitude
Exits shadow 02:39:38 10° 210° (SSW) 1,437 4.5 -20.4°
Maximum altitude 02:40:33 12° 190° (S) 1,531 4.8 -20.2°
Drops below altitude 10° 02:41:54 10° 168° (SSE) 1,902 5.6 -20.0°
Sets 02:47:27 0° 136° (SE) 4,330 8.3 -19.0°
